Location: Bern�tre
(50.1974°N, 2.0915°E)
Time: 15:40:58
(UTC+00:00)

Cosmos 2098 Rocket - Pass Details

Date: 18 September 2020
Orbit: 366 x 1185 km, 82.9° (Epoch: 24 October)

Event Time Altitude Azimuth Distance (km) Brightness Sun altitude
Rises 20:50:20 0° 351° (N) 4,080 7.9 -26.3°
Reaches altitude 10° 20:53:11 10° 354° (N) 3,079 7.2 -26.6°
Maximum altitude 21:00:27 67° 76° (ENE) 1,151 4.1 -27.5°
Enters shadow 21:00:53 65° 99° (E) 1,155 4.1 -27.6°
